User: anonymous   Login
Location: Melita
(38.4566°N, 122.6369°W)
Time: 12:23:26
(UTC+00:00)
Language:

SL-8 Rocket - Orbit

View from above orbital plane
View from above orbital plane
View from above satellite
View from above satellite

Ground track
Ground track

The orbit data is extracted from the following two-line orbital elements,

1 21088U 91006B   20098.76492726  .00000006  00000-0 -89840-5 0  9998
2 21088  82.9432 337.7866 0022004 332.2488  92.0099 13.77144228466753
Epoch (UTC): 07 April 2020 18:21:29
Eccentricity: 0.0022004
inclination: 82.9432°
perigee height: 958 km
apogee height: 990 km
right ascension of ascending node: 337.7866°
argument of perigee: 332.2488°
revolutions per day: 13.77144228
mean anomaly at epoch: 92.0099°
orbit number at epoch: 46675

The dashed part of the orbit path shows where the satellite is in the earth's shadow,  

DLR